TimeEST,TemperatureF,Dew PointF,Humidity,Sea Level PressureIn,VisibilityMPH,Wind Direction,Wind SpeedMPH,Gust SpeedMPH,PrecipitationIn,Events,Conditions,WindDirDegrees,DateUTC
12:53 AM,59.0,51.8,77,30.11,10.0,South,8.1,-,N/A,,Mostly Cloudy,190,2012-12-04 05:53:00
1:53 AM,59.0,50.0,72,30.10,10.0,SSW,8.1,-,N/A,,Overcast,200,2012-12-04 06:53:00
2:53 AM,59.0,50.0,72,30.11,10.0,South,9.2,-,N/A,,Mostly Cloudy,190,2012-12-04 07:53:00
3:53 AM,60.1,48.9,67,30.09,10.0,South,9.2,-,N/A,,Overcast,190,2012-12-04 08:53:00
4:53 AM,59.0,48.9,69,30.09,10.0,SSW,5.8,-,N/A,,Overcast,210,2012-12-04 09:53:00
5:53 AM,59.0,50.0,72,30.09,10.0,SSW,3.5,-,N/A,,Overcast,200,2012-12-04 10:53:00
6:53 AM,59.0,50.0,72,30.09,10.0,SW,4.6,-,N/A,,Overcast,220,2012-12-04 11:53:00
7:53 AM,60.1,51.1,72,30.09,10.0,SSW,8.1,-,0.00,,Overcast,210,2012-12-04 12:53:00
8:53 AM,61.0,53.1,75,30.10,10.0,SSW,9.2,-,N/A,,Overcast,210,2012-12-04 13:53:00
9:53 AM,64.0,55.0,73,30.10,10.0,SSW,10.4,-,N/A,,Mostly Cloudy,200,2012-12-04 14:53:00
10:53 AM,64.0,55.9,75,30.09,10.0,SSW,17.3,-,N/A,,Overcast,200,2012-12-04 15:53:00
11:53 AM,66.0,57.0,73,30.07,-9999.0,North,-9999.0,-,N/A,,Overcast,0,2012-12-04 16:53:00
12:53 PM,64.9,57.0,75,30.05,10.0,SSW,15.0,-,N/A,,Overcast,210,2012-12-04 17:53:00
1:53 PM,64.0,57.0,78,30.02,10.0,SSW,16.1,-,N/A,,Overcast,210,2012-12-04 18:53:00
2:53 PM,64.0,57.0,78,30.02,10.0,SSW,11.5,-,N/A,,Overcast,200,2012-12-04 19:53:00
3:53 PM,62.1,59.0,90,30.02,7.0,SSW,10.4,-,0.00,Rain,Light Rain,210,2012-12-04 20:53:00
4:49 PM,60.8,59.0,94,30.05,3.0,NNW,12.7,19.6,0.04,,Overcast,330,2012-12-04 21:49:00
4:53 PM,57.9,55.0,90,30.06,3.0,NNW,16.1,25.3,0.04,Rain,Light Rain,340,2012-12-04 21:53:00
4:59 PM,53.6,53.6,100,30.07,2.5,North,16.1,25.3,0.10,Rain,Heavy Rain,350,2012-12-04 21:59:00
5:01 PM,53.6,51.8,94,30.07,1.8,North,15.0,25.3,0.14,Rain,Heavy Rain,350,2012-12-04 22:01:00
5:03 PM,53.6,51.8,94,30.07,1.5,North,12.7,25.3,0.18,Rain,Heavy Rain,350,2012-12-04 22:03:00
5:09 PM,53.6,51.8,94,30.08,2.0,NNW,11.5,21.9,0.22,Rain,Heavy Rain,340,2012-12-04 22:09:00
5:19 PM,51.8,48.2,88,30.10,4.0,NNW,15.0,23.0,0.26,Rain,Heavy Rain,340,2012-12-04 22:19:00
5:30 PM,51.8,48.2,88,30.10,2.5,North,17.3,24.2,0.33,Rain,Heavy Rain,350,2012-12-04 22:30:00
5:37 PM,51.8,48.2,88,30.11,4.0,North,11.5,23.0,0.33,Rain,Rain,350,2012-12-04 22:37:00
5:50 PM,51.8,48.2,88,30.12,8.0,NNW,11.5,17.3,0.33,Rain,Light Rain,340,2012-12-04 22:50:00
5:53 PM,51.1,48.9,92,30.13,7.0,North,11.5,-,0.34,Rain,Rain,360,2012-12-04 22:53:00
6:23 PM,48.2,42.8,82,30.16,10.0,North,9.2,20.7,0.00,Rain,Light Rain,360,2012-12-04 23:23:00
6:46 PM,48.2,42.8,82,30.18,8.0,North,5.8,-,0.00,Rain,Light Rain,360,2012-12-04 23:46:00
6:53 PM,48.0,44.1,86,30.19,9.0,NNW,4.6,-,0.00,Rain,Light Rain,330,2012-12-04 23:53:00
7:53 PM,46.9,42.1,83,30.19,10.0,Calm,Calm,-,0.01,Rain,Light Rain,0,2012-12-05 00:53:00
8:53 PM,46.0,44.1,93,30.21,10.0,Calm,Calm,-,0.00,,Overcast,0,2012-12-05 01:53:00
9:53 PM,45.0,44.1,97,30.22,10.0,Calm,Calm,-,N/A,,Mostly Cloudy,0,2012-12-05 02:53:00
10:53 PM,41.0,41.0,100,30.23,10.0,Calm,Calm,-,N/A,,Partly Cloudy,0,2012-12-05 03:53:00
11:00 PM,42.8,41.0,93,30.23,0.5,Calm,Calm,-,N/A,Fog,Fog,0,2012-12-05 04:00:00
11:16 PM,39.2,39.2,100,30.22,0.2,Calm,Calm,-,N/A,Fog,Fog,0,2012-12-05 04:16:00
11:53 PM,37.9,37.9,100,30.24,0.2,SW,3.5,-,N/A,Fog,Fog,220,2012-12-05 04:53:00